Flag for U.S.A. Weather past 2 weeks in Moreno Valley, California, U.S.A.

Now
78 °F

Clear.


Feels Like: 80 °F
Forecast: 74 / 93 °F
Wind: 2 mph from West

Location: Riverside / March Air Force Base

Current Time: Sep 17, 2014 at 7:13:02 AM

Latest Report: Sep 17, 2014 at 5:58 AM


Visibility: 10 mi

Pressure: 29.75 "Hg

Humidity: 63%

Dew point: 65 °F

Location of Moreno ValleyLocation

Historic Weather in Moreno Valley — Graph

°F

Moreno Valley temperature yesterday

Maximum temperature yesterday: 102 °F (at 1:58 PM)
Minimum temperature yesterday: 74 °F (at 5:58 AM)
Average temperature yesterday: 87 °F

Past Weeks' High & Low Weather Summary

 TemperatureHumidityPressure
High106 °F (Sep 15, 1:58 PM)100% (Sep 2, 6:58 AM)29.98 "Hg (Sep 2, 6:58 AM)
Low59 °F (Sep 10, 4:58 AM)13% (Sep 13, 11:58 AM)29.68 "Hg (Sep 14, 3:58 PM)
Average80 °F46%29.81 "Hg
* Reported Sep 2 5:58 AM — Sep 17 5:58 AM, Moreno Valley, Weather by CustomWeather, © 2014

Note: Actual official high and low records may vary slightly from our data, if they occured in-between our weather recording intervals... More about our weather records

Advertising

Moreno Valley weather history for previous 24 hours

 ConditionsComfort  
Time TempWeatherWind HumidityBarometerVisibility
5:58 AM
Sep 17
78 °FClear.2 mph63%29.75 "Hg10 mi
4:58 AM82 °FClear.No wind56%29.75 "Hg10 mi
3:58 AM82 °FClear.No wind58%29.75 "Hg10 mi
2:58 AM83 °FClear.6 mph56%29.74 "Hg10 mi
1:58 AM84 °FClear.8 mph55%29.75 "Hg10 mi
12:58 AM85 °FClear.5 mph54%29.76 "Hg10 mi
11:58 PM
Sep 16
86 °FPassing clouds.10 mph51%29.77 "Hg10 mi
10:58 PM87 °FClear.14 mph48%29.77 "Hg10 mi
9:58 PM85 °FClear.2 mph43%29.77 "Hg10 mi
8:58 PM83 °FClear.No wind41%29.77 "Hg10 mi
7:58 PM86 °FPassing clouds.2 mph36%29.75 "Hg10 mi
6:58 PM89 °FSunny.No wind33%29.75 "Hg10 mi
5:58 PM90 °FSunny.6 mph33%29.74 "Hg10 mi
4:58 PM90 °FPartly sunny.5 mph32%29.75 "Hg10 mi
3:58 PM86 °FThundershowers. Partly sunny.12 mph35%29.74 "Hg10 mi
2:58 PM91 °FThundershowers. Partly sunny.23 mph34%29.75 "Hg5 mi
2:53 PM93 °FThundershowers. Partly sunny.29 mph34%29.79 "Hg3 mi
1:58 PM102 °FSunny.3 mph22%29.72 "Hg10 mi
12:58 PM100 °FSunny.2 mph26%29.74 "Hg10 mi
11:58 AM98 °FSunny.8 mph33%29.77 "Hg10 mi
10:58 AM96 °FSunny.12 mph37%29.79 "Hg10 mi
9:58 AM92 °FSunny.7 mph43%29.81 "Hg10 mi
8:58 AM89 °FSunny.10 mph50%29.80 "Hg10 mi
7:58 AM86 °FSunny.10 mph58%29.80 "Hg10 mi
Weather by CustomWeather, © 2014

See weather overviewHow to use our weather pages